Weather in Kaitaia

New Zealand     35°06′36″S   173°15′45″E
temp.,
°C
wind,
m/s
gust,
m/s
humid.,
%
clouds,
%
prec.,
mm/h
press.,
hPa
HPBL,
m
28 november, sun
sun2801:00+14ese12905 0.0 1024131
04:00+13ese119356 0.0 102331
07:00+13se1191100 0.0 102443
10:00+20nne1262100 0.0 1024897
13:00+21nne325724 0.0 10231139
16:00+21nne325898 0.0 10221109
19:00+19nw2368100 0.0 1022653
22:00+17sw118198 0.0 102416
29 november, mon
mon2901:00+15se1187100 0.0 102322
04:00+14se119094 0.0 102223
07:00+14sse118852 0.0 102241
10:00+20nne116466 0.0 1023692
13:00+23nnw225396 0.0 10221263
16:00+22nw3356100 0.0 10211145
19:00+19wsw2468100 0.0 1021385
22:00+15sw1287100 0.0 102238
30 november, tue
tue3001:00+15ssw119198 0.0 102231
04:00+14s1194100 0.0 102027
07:00+15s1189100 0.0 102147
10:00+21wnw125888 0.0 1021853
13:00+22w2356100 0.0 1020909
16:00+21w335866 0.0 1019775
19:00+20wsw346720 0.0 1019455
22:00+15ssw129214 0.0 102134
1 december, wed
wed101:00+14s1195100 0.0 102132
04:00+14s1296100 0.0 102041
07:00+15sse1293100 0.0 102165
10:00+21nne1164100 0.0 1021710
13:00+21nw226584 0.0 1021686
16:00+23nw226389 0.0 1020978
19:00+20nw1278100 0.1 1020179
22:00+18nne118896 0.0 102257
2 december, thu
thu201:00+18ene1286100 0.0 102276
04:00+18ese248487 0.0 1022153
07:00+17e389323 0.0 1023334
10:00+21ene576751 0.0 10231041
13:00+22ene566058 0.0 10231272
16:00+21ne5665100 0.0 10221091
19:00+20ene4772100 0.1 1022721
22:00+17e3985100 0.0 1024502